Theta_e
323 324 325 326 333 341 343 344 345 345 344 344 342 342 342 341 341 340 339 338 336 336 332 332 331 330 329 328 329 330 334 337
322 321 324 325 328 337 346 346 346 346 345 345 344 343 344 343 342 341 341 339 337 336 332 332 332 331 329 329 329 331 335 337
324 324 324 325 326 334 343 346 347 346 346 346 346 345 344 343 343 342 342 341 339 337 335 332 333 332 330 330 330 331 335 337
323 324 324 325 326 335 341 344 347 346 346 346 345 344 344 344 344 344 343 343 341 339 336 335 334 333 332 333 332 332 335 337
320 323 324 325 329 336 341 343 346 346 345 345 345 344 344 344 344 344 342 343 343 341 338 336 336 335 333 334 335 333 333 337
317 319 322 323 326 339 343 344 347 347 346 346 346 345 344 344 344 343 341 342 344 344 341 338 337 337 334 336 337 338 335 335
317 317 318 322 325 340 344 345 345 346 347 346 347 347 345 344 344 343 342 341 345 344 343 341 338 338 337 337 338 340 339 334
319 318 318 322 324 334 344 345 345 347 347 348 347 347 346 344 344 343 342 342 343 345 344 343 341 339 339 338 341 341 340 340
317 317 320 319 323 324 341 342 345 345 348 348 347 347 346 345 343 342 342 343 342 345 344 344 343 341 340 339 340 342 342 341
319 322 319 319 321 324 327 341 344 344 347 348 348 346 346 345 344 343 342 343 343 343 345 345 344 344 342 340 340 341 342 343
316 319 323 319 320 322 326 332 341 344 345 348 348 347 347 346 345 344 343 342 343 343 345 345 345 344 344 342 341 340 342 342
314 316 323 321 320 322 324 327 339 343 343 347 349 348 347 347 347 345 344 344 344 344 345 346 346 345 344 343 342 341 340 342
312 315 323 321 322 321 322 326 328 341 343 345 348 349 349 348 347 347 345 344 344 344 345 345 346 346 345 344 343 341 341 341
311 314 321 321 320 323 325 325 325 335 340 344 347 348 348 348 348 347 347 345 344 344 345 345 345 345 344 344 343 342 341 341
308 310 316 320 321 322 323 325 328 326 333 344 347 346 346 347 348 349 348 347 346 346 345 346 345 345 345 345 344 343 343 341
306 308 308 313 316 318 319 321 324 328 329 329 345 347 346 346 348 349 349 348 348 348 347 347 347 347 346 346 345 344 344 343
305 306 306 307 309 312 311 311 315 323 328 331 329 339 346 347 347 348 348 348 348 348 349 348 348 348 347 346 346 346 345 345
306 306 305 306 306 308 309 309 309 312 316 321 327 330 332 344 346 346 348 348 347 347 348 348 348 348 347 346 345 346 346 345
308 306 305 304 304 306 307 308 307 308 309 310 315 319 325 331 338 342 344 345 347 347 348 348 348 348 347 345 344 344 344 343
Wind_Speed
24 29 32 31 29 33 36 39 38 40 36 33 32 30 30 29 29 28 29 30 28 28 25 23 24 22 21 20 19 18 18 17
36 39 31 34 32 33 36 38 41 38 38 36 33 34 33 32 31 29 29 32 31 30 26 26 27 25 23 22 20 19 19 18
19 22 28 28 31 32 36 39 40 41 40 39 35 35 32 33 30 31 30 31 31 31 29 28 29 26 25 25 24 21 21 20
23 23 26 27 31 29 34 39 40 43 41 37 34 31 29 30 31 31 32 32 34 34 33 27 29 28 27 27 28 25 23 22
27 26 25 27 27 29 33 37 39 43 42 38 39 35 33 33 33 32 33 34 35 34 33 33 29 31 27 31 29 29 24 23
29 29 35 32 30 29 31 34 37 40 44 41 39 36 35 32 29 30 36 33 36 35 35 33 31 32 31 31 31 32 30 24
27 35 40 36 27 30 31 35 38 42 41 46 38 39 35 32 33 33 33 36 35 39 37 37 37 34 34 32 33 33 30 32
19 24 25 33 32 29 32 34 35 39 41 42 43 39 39 37 35 35 33 34 37 40 41 40 38 38 34 34 33 33 36 30
15 21 22 30 32 29 34 35 35 36 40 43 45 38 37 37 37 34 35 35 39 35 43 41 42 39 37 35 35 34 34 37
27 21 20 30 30 34 26 36 37 35 39 39 40 42 39 38 35 37 38 35 34 38 39 42 41 40 41 39 37 36 35 35
25 27 20 29 32 33 29 27 35 38 36 39 41 43 42 40 39 37 35 37 35 37 38 42 42 42 41 41 39 39 38 37
25 28 27 30 30 28 30 32 33 36 38 38 40 41 43 41 37 40 40 36 35 35 40 40 41 41 42 41 42 38 41 38
25 29 19 14 23 29 28 25 32 36 36 37 39 40 39 40 42 39 39 38 36 38 35 38 38 40 40 43 42 40 40 41
22 25 12 12 18 20 19 21 29 26 35 36 36 35 34 38 40 40 37 37 37 37 36 35 38 40 42 43 44 43 43 43
18 21 22 12 13 15 16 16 20 15 22 33 35 35 37 38 38 36 37 37 38 38 38 37 38 37 38 40 41 41 42 41
18 18 19 20 16 17 19 20 19 18 18 21 30 36 37 35 33 34 34 35 35 35 35 36 35 36 37 39 40 41 41 41
16 19 20 21 28 22 21 21 23 17 12 17 18 14 31 30 29 29 31 33 34 33 34 36 37 37 39 43 40 39 39 38
12 13 17 24 28 26 20 23 23 22 19 16 15 13 15 22 26 26 29 30 31 34 34 35 36 38 41 44 46 40 37 37
8 6 15 23 30 29 25 24 26 26 25 24 24 19 15 14 17 27 26 25 28 30 32 34 35 36 39 43 43 46 36 35
Wind_Direction
241 236 237 234 216 204 200 198 201 193 195 200 196 199 198 202 199 199 196 200 199 198 198 195 192 195 194 197 197 198 197 199
235 245 233 233 222 206 196 197 198 193 194 196 195 200 195 203 202 201 197 200 201 200 203 195 194 198 196 195 196 200 206 201
254 234 237 234 229 208 199 202 197 197 197 198 199 198 198 200 205 199 201 202 203 201 206 199 195 200 195 191 195 197 208 207
261 252 239 231 233 207 201 206 197 198 200 201 203 199 204 201 203 200 200 205 207 204 206 206 198 199 196 194 195 201 199 209
257 266 254 220 235 207 204 208 200 198 202 204 201 200 197 203 201 199 203 208 207 207 207 210 204 200 200 197 198 203 204 204
245 247 257 252 216 205 203 206 201 202 199 208 205 204 205 201 199 202 209 210 211 208 208 209 210 203 206 198 200 202 208 210
236 244 247 250 234 197 200 203 206 205 200 202 210 205 203 198 201 205 203 210 210 209 208 209 211 208 205 204 201 203 205 211
258 238 236 244 243 202 196 201 213 204 203 203 212 208 205 201 201 202 200 204 211 206 205 207 210 211 208 206 204 205 207 210
282 267 270 238 245 245 195 204 210 210 205 205 206 212 208 207 204 202 202 204 205 206 205 207 208 209 210 208 209 208 209 213
325 308 258 259 241 234 233 200 205 214 209 205 206 209 210 209 208 206 206 205 203 204 205 207 209 209 208 207 210 212 212 213
323 315 301 254 247 233 227 215 204 207 214 208 207 207 210 211 211 208 207 207 205 201 204 206 208 210 209 209 212 213 212 215
316 308 294 280 254 244 229 211 212 207 211 209 208 209 210 211 211 211 210 208 206 204 204 205 207 210 211 211 213 213 215 215
314 304 309 313 280 247 240 221 217 209 211 213 209 210 208 210 213 211 211 210 208 209 208 206 207 209 211 212 213 214 215 216
324 331 327 329 331 323 303 235 216 230 213 209 212 211 211 214 215 214 211 210 210 212 210 210 208 208 209 213 214 214 217 218
341 342 334 357 353 344 329 320 317 267 240 209 209 211 213 217 217 215 212 211 209 209 211 212 215 212 210 212 214 215 218 221
353 354 357 353 15 7 6 352 338 332 285 275 214 210 215 222 219 216 215 214 214 211 211 213 216 217 215 214 214 214 216 218
2 5 4 6 357 16 14 2 356 353 311 295 282 262 210 218 218 218 218 217 215 214 213 213 215 216 218 218 215 215 217 216
344 6 10 3 360 358 9 7 9 14 19 12 347 300 291 228 219 220 218 217 215 216 217 216 218 217 219 219 219 219 219 215
349 354 19 5 358 356 359 7 11 13 13 15 14 360 339 293 257 226 227 225 221 219 220 221 220 220 219 219 222 220 222 218